EHI
0 0 0 0 0 0 0 0 0 0 0 0 0 0 0 0 0 0 0 0 0 0 0 1 0 0 0 0 0 0 0 0 0 0 0 0 0 0 0 0 0 0 0
0 0 0 0 0 0 0 0 0 0 0 0 0 0 0 0 0 0 0 0 0 0 0 1 0 0 0 0 0 0 0 0 0 0 0 0 0 0 0 0 0 0 0
0 0 0 0 0 0 0 0 0 0 0 0 0 0 0 0 0 0 0 0 0 0 0 0 0 0 0 0 0 0 0 0 0 0 0 0 0 0 0 0 0 0 0
0 0 0 0 0 0 0 0 0 0 0 0 0 0 0 0 0 0 0 0 0 0 0 0 0 0 0 0 0 0 0 0 0 0 0 0 0 0 0 0 0 0 0
0 0 0 0 0 0 0 0 0 0 0 0 0 0 0 0 0 0 0 0 0 0 0 0 0 0 0 0 0 0 0 0 0 0 0 0 0 0 0 0 0 0 0
0 0 0 0 0 0 0 0 0 0 0 0 0 0 0 0 0 0 0 0 0 0 0 0 0 0 0 0 0 0 0 0 0 0 0 0 0 0 0 0 0 0 0
0 0 0 0 0 0 0 0 0 0 0 0 0 0 0 0 0 0 0 0 0 0 0 0 0 0 0 0 0 0 0 0 0 0 0 0 0 0 0 0 0 0 0
0 0 0 0 0 0 0 0 0 0 0 0 0 0 0 0 0 0 0 0 0 0 0 0 0 0 0 0 0 0 0 0 0 0 0 0 0 0 0 0 0 0 0
0 0 0 0 0 0 0 0 0 0 0 0 0 0 0 0 0 0 0 0 0 0 0 0 0 0 0 0 0 0 0 0 0 0 0 0 0 0 0 0 0 0 0
0 0 0 0 0 0 0 0 0 0 0 0 0 0 0 0 0 0 0 0 0 0 0 0 0 0 0 0 0 0 0 0 0 0 0 0 0 0 0 0 0 0 0
0 0 0 0 0 0 0 0 0 0 0 0 0 0 0 0 0 0 0 0 0 0 0 0 0 0 0 0 0 0 0 0 0 0 0 0 0 0 0 0 0 0 0
0 0 0 0 0 0 0 0 0 0 0 0 0 0 0 0 0 0 0 0 0 0 0 0 0 0 0 0 0 0 0 0 0 0 0 0 0 0 0 0 0 0 0
0 0 0 0 0 0 0 0 0 0 0 0 0 0 0 0 0 0 0 0 0 0 0 0 0 0 0 0 0 0 0 0 0 0 0 0 0 0 0 0 0 0 0
0 0 0 0 0 0 0 0 0 0 0 0 0 0 0 0 0 0 0 0 0 0 0 0 0 0 0 0 0 0 0 0 0 0 0 0 0 0 0 0 0 0 0
0 0 0 0 0 0 0 0 0 0 0 0 0 0 0 0 0 0 0 0 0 0 0 0 0 0 0 0 0 0 0 0 0 0 0 0 0 0 0 0 0 0 0
0 0 0 0 0 0 0 0 0 0 0 0 0 0 0 0 0 0 0 0 0 0 0 0 0 0 0 0 0 0 0 0 0 0 0 0 0 0 0 0 0 0 0
0 0 0 0 0 0 0 0 0 0 0 0 0 0 0 0 0 0 0 0 0 0 0 0 0 0 0 0 0 0 0 0 0 0 0 0 0 0 0 0 0 0 0
0 0 0 0 0 0 0 0 0 0 0 0 0 0 0 0 0 0 0 0 0 0 0 0 0 0 0 0 0 0 0 0 0 0 0 0 0 0 0 0 0 0 0
0 0 0 0 0 0 0 0 0 0 0 0 0 0 0 0 0 0 0 0 0 0 0 0 0 0 0 0 0 0 0 0 0 0 0 0 0 0 0 0 0 0 0
0 0 0 0 0 0 0 0 0 0 0 0 0 0 0 0 0 0 0 0 0 0 0 0 0 0 0 0 0 0 0 0 0 0 0 0 0 0 0 0 0 0 0
0 0 0 0 0 0 0 0 0 0 0 0 0 0 0 0 0 0 0 0 0 0 0 0 0 0 0 0 0 0 0 0 0 0 0 0 0 0 0 0 0 0 0
0 0 0 0 0 0 0 0 0 0 0 0 0 0 0 0 0 0 0 0 0 0 0 0 0 0 0 0 0 0 0 0 0 0 0 0 0 0 0 0 0 0 0
0 0 0 0 0 0 0 0 0 0 0 0 0 0 0 0 0 0 0 0 0 0 0 0 0 0 0 0 0 0 0 0 0 0 0 0 0 0 0 0 0 0 0
0 0 0 0 0 0 0 0 0 0 0 0 0 0 0 0 0 0 0 0 0 0 0 0 0 0 0 0 0 0 0 0 0 0 0 0 0 0 0 0 0 0 0
0 0 0 0 0 0 0 0 0 0 0 0 0 0 0 0 0 0 0 0 0 0 0 0 0 0 0 0 0 0 0 0 0 0 0 0 0 0 0 0 0 0 0
0 0 0 0 0 0 0 0 0 0 0 0 0 0 0 0 0 0 0 0 0 0 0 0 0 0 0 0 0 0 0 0 0 0 0 0 0 0 0 0 0 0 0
Wind_Speed
2 2 2 2 2 2 3 3 3 4 4 4 3 4 3 3 2 2 1 3 3 2 2 3 5 6 6 6 6 6 6 6 6 6 6 6 6 5 6 6 6 7 7
2 2 3 2 2 2 3 3 4 4 3 3 3 3 3 3 2 2 2 2 3 4 3 3 4 5 6 6 6 6 6 6 6 6 6 5 5 5 6 6 6 6 6
3 3 2 2 2 3 3 3 4 3 3 3 3 3 2 2 2 2 2 2 2 3 4 4 3 4 5 5 6 6 6 5 5 5 5 5 5 5 5 5 6 7 7
3 3 2 2 2 3 3 3 3 3 3 3 2 2 2 2 2 2 2 2 2 2 3 4 4 3 3 4 5 5 5 5 5 5 5 5 5 5 5 5 5 6 6
3 3 3 2 3 3 3 3 2 3 3 3 2 2 2 2 1 1 2 2 2 2 1 3 4 4 2 3 4 5 5 5 4 4 4 4 4 4 5 5 5 5 6
3 3 3 3 3 3 3 3 3 3 3 3 3 3 2 1 1 1 1 1 2 2 2 2 2 2 3 2 3 3 4 4 4 3 3 3 3 3 4 4 4 5 5
3 3 3 3 3 3 4 4 4 4 2 2 3 2 2 2 2 1 1 1 1 1 2 2 1 1 1 2 2 2 3 3 3 3 2 2 2 2 2 3 3 4 5
3 3 4 4 4 4 4 4 4 3 1 1 2 2 1 2 1 1 1 1 1 1 1 1 1 1 1 1 1 1 1 2 2 2 1 1 0 1 1 2 3 4 4
3 3 4 4 4 4 4 4 4 4 3 1 1 3 3 2 1 1 1 0 0 0 0 1 1 1 1 1 1 1 0 1 1 2 1 0 1 1 1 2 2 3 4
3 3 4 5 5 4 5 5 4 3 4 3 1 1 1 3 2 1 1 1 0 0 1 1 1 1 1 1 1 1 0 0 2 2 2 2 2 2 2 2 3 3 4
3 3 4 4 5 4 5 5 3 3 3 4 3 2 1 1 1 2 2 1 1 1 1 1 1 1 1 1 1 1 0 1 3 4 4 3 3 3 3 4 4 4 4
2 3 3 3 4 4 5 5 4 4 4 4 3 2 3 2 2 2 2 2 2 2 1 1 1 1 1 1 1 1 1 2 3 4 4 4 4 4 5 5 5 5 5
2 3 3 3 3 3 4 4 4 3 4 4 4 3 2 2 2 2 2 1 1 2 1 1 2 1 1 1 1 2 2 2 3 4 5 5 5 5 5 6 6 6 6
3 4 4 3 3 3 3 3 3 3 3 3 4 3 2 2 2 2 3 2 1 1 2 3 1 2 1 1 2 2 2 3 3 4 5 5 5 4 5 6 6 6 6
3 4 4 4 3 4 4 4 3 3 3 3 3 3 2 2 2 2 2 3 3 3 4 3 2 2 1 1 2 1 2 4 4 4 5 5 4 5 5 5 6 6 7
3 4 4 4 4 4 4 4 3 3 3 3 2 3 3 2 2 2 2 2 2 3 3 3 3 2 2 2 3 1 2 4 5 5 5 4 5 5 5 5 6 6 6
4 5 5 4 4 4 4 4 4 4 4 4 4 4 4 3 3 2 2 2 2 2 3 2 1 1 2 2 2 2 2 2 2 5 5 5 5 5 6 6 6 6 6
4 4 4 4 4 4 5 5 5 5 5 5 5 5 5 3 4 3 3 3 2 2 3 3 2 1 2 3 2 2 2 2 2 4 5 6 6 5 6 6 6 6 6
4 4 4 5 5 5 5 6 6 5 5 5 5 6 5 5 5 4 4 3 2 2 1 2 2 1 1 1 1 2 2 2 3 4 4 5 6 6 6 7 7 7 7
4 5 4 4 5 5 5 5 5 5 5 4 4 5 5 6 6 5 4 4 3 2 2 2 2 1 1 1 1 2 2 2 3 3 3 4 5 6 7 8 8 7 7
4 4 4 4 4 4 4 5 5 5 5 4 4 5 5 6 7 5 4 4 4 3 3 2 2 2 2 2 3 2 3 2 3 2 2 2 2 3 4 6 7 7 8
3 4 4 4 4 4 5 7 5 5 5 5 5 5 5 6 7 8 7 7 6 5 5 4 3 4 4 4 3 2 2 2 3 2 1 3 2 3 4 3 7 9 9
3 3 4 4 5 5 6 6 6 4 4 5 5 5 4 4 5 4 5 6 7 8 8 6 6 6 5 5 4 4 4 4 4 3 1 4 2 4 4 5 9 9 9
3 3 4 4 4 4 5 6 5 4 4 5 5 5 5 4 5 5 4 4 4 5 6 5 6 6 6 5 6 5 4 3 3 3 3 4 3 3 3 3 8 9 9
2 2 3 3 4 4 5 5 4 3 3 3 4 4 4 5 6 6 4 4 4 4 5 6 7 7 7 8 5 3 2 2 4 3 3 3 2 2 3 4 5 8 8
2 2 2 2 3 3 4 5 4 2 2 2 2 3 5 5 6 6 5 5 5 5 3 2 2 3 4 5 7 5 5 4 3 3 3 2 2 1 3 2 3 3 4
Wind_Direction
137 131 125 121 117 113 117 112 107 101 94 88 90 95 89 77 70 67 46 49 51 54 84 123 135 135 129 127 121 109 99 95 90 87 83 82 77 72 66 59 52 48 45
126 131 129 126 125 125 125 123 119 112 103 98 88 87 87 81 68 62 50 35 33 32 43 72 125 134 131 125 119 115 105 96 93 90 83 80 80 73 66 58 49 44 40
132 126 128 128 128 125 119 111 104 101 100 95 91 87 83 75 71 62 52 41 31 31 40 51 87 114 123 126 121 111 107 101 97 91 85 78 77 72 63 55 49 44 41
131 131 123 131 131 123 115 117 114 106 101 98 93 82 76 71 71 69 63 54 45 31 32 42 53 76 111 126 124 119 112 109 105 99 91 81 74 68 59 49 46 41 37
135 136 134 133 131 123 119 125 112 119 118 108 98 80 66 66 67 71 66 61 59 52 40 33 41 45 70 123 132 125 119 108 105 108 102 90 76 65 56 46 42 38 35
147 138 132 135 137 132 130 126 119 103 114 117 99 72 49 33 43 58 66 56 55 56 49 37 35 27 40 86 126 135 129 123 109 108 105 96 84 68 55 43 35 31 27
158 149 140 142 151 152 152 139 124 114 104 106 92 60 28 34 42 37 38 60 52 53 58 45 39 33 10 39 85 125 143 140 131 113 112 105 86 70 51 36 24 20 17
168 163 152 159 163 152 148 148 137 131 131 130 122 110 57 349 347 360 6 34 27 43 51 44 45 45 28 8 23 76 145 163 160 150 133 136 109 47 22 14 9 3 1
173 172 167 162 167 165 168 168 159 151 156 177 150 143 152 202 281 312 313 337 8 12 343 11 21 8 1 346 310 322 308 213 206 205 198 204 267 276 323 337 339 341 343
173 176 173 170 172 170 171 177 169 158 155 171 165 104 139 151 158 206 289 292 334 300 288 299 300 306 321 301 301 328 114 214 240 248 255 255 270 285 278 294 312 321 327
178 176 174 174 174 173 175 177 174 169 166 173 173 163 144 106 156 164 216 254 278 252 247 254 256 266 282 296 288 300 265 235 242 250 261 267 276 288 294 292 296 305 312
182 185 177 175 175 174 178 181 183 186 185 178 178 173 167 171 183 177 197 222 243 258 253 242 243 251 246 255 290 334 331 282 259 258 266 277 286 293 299 304 303 297 301
191 196 179 174 175 175 176 172 175 191 188 182 186 194 190 192 171 168 170 200 242 277 269 247 239 244 245 229 263 293 290 285 269 266 267 275 291 304 307 304 306 309 302
196 184 179 178 175 170 171 170 171 193 189 191 194 187 189 199 184 175 172 169 214 277 264 252 251 238 245 233 251 266 280 282 283 283 281 283 289 299 304 299 296 301 308
186 179 175 176 176 173 171 167 179 185 185 195 195 190 193 202 194 186 181 176 177 219 243 237 237 250 266 251 247 246 270 275 277 281 285 290 289 288 290 290 288 291 297
181 179 181 178 177 178 177 171 174 180 180 197 195 191 199 202 192 185 188 194 192 198 231 227 222 234 253 269 255 246 255 276 278 277 279 287 289 285 282 288 286 286 292
184 187 188 182 179 183 182 175 184 186 191 200 200 200 208 198 193 196 190 191 200 191 224 250 234 234 223 244 268 264 255 251 274 278 279 283 285 281 279 282 285 282 286
191 190 187 185 186 190 188 187 194 195 199 200 203 201 209 202 199 198 193 201 209 205 201 235 246 233 238 238 244 256 271 262 259 275 275 281 281 279 284 284 281 280 282
187 186 188 191 194 196 197 199 199 200 206 205 204 203 206 198 206 204 199 201 205 216 199 202 240 244 257 256 264 279 279 278 268 269 273 280 279 278 283 284 280 279 279
183 187 194 198 200 198 200 200 198 204 209 211 207 207 206 202 206 203 201 200 192 194 190 196 229 249 258 260 237 259 283 277 274 275 273 277 276 280 282 286 282 278 276
190 187 187 194 198 199 199 197 198 202 205 211 212 213 213 210 210 208 207 198 190 195 195 208 224 233 240 223 227 229 260 280 273 254 263 269 274 276 274 279 281 276 273
187 184 193 195 201 214 212 205 202 200 203 208 215 218 218 211 215 223 228 221 206 200 203 210 225 227 237 227 220 228 235 264 271 241 228 267 248 263 263 254 270 274 275
183 189 200 198 207 220 214 211 212 210 207 211 213 211 217 217 212 210 222 227 230 230 220 214 218 227 227 217 204 226 231 236 248 245 230 260 240 257 261 270 276 272 274
191 196 203 204 207 222 217 215 213 210 211 212 211 209 207 209 211 202 197 210 225 234 232 225 221 226 224 211 206 217 226 248 270 255 214 251 251 255 270 271 275 273 275
196 203 207 204 209 225 217 213 211 201 211 218 216 209 205 210 217 210 198 206 228 248 252 239 235 236 233 226 210 187 205 237 267 255 213 221 248 272 272 266 268 271 277
197 192 205 211 209 218 218 211 207 194 207 219 215 216 224 226 227 220 208 204 223 238 230 236 243 246 236 222 221 209 202 220 247 259 224 207 232 284 295 263 251 259 272